When you browse on this site, cookies collect data to enhance your experience and personalize the content and advertising you see.
Visit our Privacy Policy to learn more. By continuing to use the site, you agree to this use of cookies and data.
  • In Denmark
  • List of Countries
  • For 7 days
  • Water Temperature
  • Weather Map
  • Weather Widgets
  • user-avatar
    Login

    Hourly Weather Tomaszewo

    Today, 23 September, Monday

    Time Temperature Precipitation Wind Pressure Humidity
    00:00 +11°C° 0 mm 3 mps 754 mmHg 86%
    01:00 +11°C° 0 mm 3 mps 754 mmHg 92%
    02:00 +11°C° 0 mm 3 mps 754 mmHg 93%
    03:00 +11°C° 0 mm 4 mps 754 mmHg 93%
    04:00 +10°C° 0 mm 5 mps 754 mmHg 94%
    05:00 +10°C° 0 mm 5 mps 755 mmHg 90%
    06:00 +10°C° 0 mm 5 mps 755 mmHg 87%
    07:00 +10°C° 0 mm 5 mps 756 mmHg 83%
    08:00 +12°C° 0 mm 5 mps 756 mmHg 79%
    09:00 +12°C° 0 mm 5 mps 756 mmHg 74%
    10:00 +13°C° 0 mm 5 mps 756 mmHg 69%
    11:00 +14°C° 0 mm 5 mps 756 mmHg 66%
    12:00 +15°C° 0 mm 5 mps 755 mmHg 63%
    13:00 +16°C° 0 mm 5 mps 755 mmHg 60%
    14:00 +16°C° 0 mm 5 mps 755 mmHg 61%
    15:00 +16°C° 0 mm 5 mps 755 mmHg 61%
    16:00 +15°C° 0 mm 4 mps 755 mmHg 61%
    17:00 +14°C° 0 mm 4 mps 755 mmHg 66%
    18:00 +12°C° 0 mm 4 mps 755 mmHg 70%
    19:00 +11°C° 0 mm 4 mps 756 mmHg 74%
    20:00 +10°C° 0 mm 4 mps 756 mmHg 74%
    21:00 +10°C° 0 mm 3 mps 756 mmHg 75%
    22:00 +9°C° 0 mm 3 mps 756 mmHg 75%
    23:00 +9°C° 0 mm 3 mps 756 mmHg 76%

    Tomorrow, 24 September, Tuesday

    Time Temperature Precipitation Wind Pressure Humidity
    00:00 +8°C° 0 mm 3 mps 756 mmHg 77%
    01:00 +8°C° 0 mm 3 mps 756 mmHg 79%
    02:00 +7°C° 0 mm 3 mps 756 mmHg 80%
    03:00 +7°C° 0 mm 3 mps 756 mmHg 81%
    04:00 +7°C° 0 mm 3 mps 755 mmHg 82%
    05:00 +7°C° 0 mm 3 mps 755 mmHg 80%
    06:00 +8°C° 0 mm 3 mps 755 mmHg 78%
    07:00 +8°C° 0 mm 3 mps 755 mmHg 76%
    08:00 +10°C° 0 mm 3 mps 755 mmHg 70%
    09:00 +12°C° 0 mm 3 mps 755 mmHg 64%
    10:00 +14°C° 0 mm 3 mps 755 mmHg 58%
    11:00 +17°C° 0 mm 3 mps 755 mmHg 55%
    12:00 +18°C° 0 mm 3 mps 754 mmHg 52%
    13:00 +19°C° 0 mm 3 mps 754 mmHg 49%
    14:00 +19°C° 0 mm 3 mps 753 mmHg 49%
    15:00 +19°C° 0 mm 3 mps 753 mmHg 50%
    16:00 +19°C° 0 mm 3 mps 753 mmHg 51%
    17:00 +17°C° 0 mm 3 mps 753 mmHg 57%
    18:00 +14°C° 0 mm 3 mps 753 mmHg 62%
    19:00 +12°C° 0 mm 3 mps 752 mmHg 67%
    20:00 +12°C° 0 mm 3 mps 752 mmHg 68%
    21:00 +11°C° 0 mm 3 mps 752 mmHg 69%
    22:00 +11°C° 0 mm 3 mps 752 mmHg 70%
    23:00 +10°C° 0 mm 3 mps 752 mmHg 72%

    Day after tomorrow, 25 September, Wednesday

    Time Temperature Precipitation Wind Pressure Humidity
    00:00 +10°C° 0 mm 3 mps 752 mmHg 74%
    01:00 +10°C° 0 mm 3 mps 752 mmHg 76%
    02:00 +10°C° 0 mm 3 mps 751 mmHg 77%
    03:00 +10°C° 0 mm 3 mps 751 mmHg 78%
    04:00 +10°C° 0 mm 4 mps 750 mmHg 79%
    05:00 +10°C° 0 mm 4 mps 750 mmHg 77%
    06:00 +11°C° 0 mm 4 mps 750 mmHg 75%
    07:00 +11°C° 0 mm 4 mps 750 mmHg 73%
    08:00 +12°C° 0 mm 4 mps 750 mmHg 70%
    09:00 +14°C° 0 mm 4 mps 750 mmHg 66%
    10:00 +15°C° 0 mm 4 mps 750 mmHg 63%
    11:00 +17°C° 0 mm 4 mps 749 mmHg 61%
    12:00 +18°C° 0 mm 4 mps 749 mmHg 59%
    13:00 +19°C° 0 mm 3 mps 749 mmHg 57%
    14:00 +18°C° 0 mm 3 mps 749 mmHg 63%
    15:00 +17°C° 0 mm 3 mps 749 mmHg 68%
    16:00 +17°C° 0 mm 3 mps 748 mmHg 74%
    17:00 +16°C° 0.1 mm 2 mps 748 mmHg 78%
    18:00 +15°C° 0.1 mm 2 mps 748 mmHg 82%
    19:00 +15°C° 0.1 mm 2 mps 749 mmHg 87%
    20:00 +15°C° 0 mm 2 mps 749 mmHg 86%
    21:00 +15°C° 0 mm 2 mps 749 mmHg 85%
    22:00 +15°C° 0 mm 2 mps 749 mmHg 84%
    23:00 +15°C° 0 mm 2 mps 749 mmHg 84%

    26 September, Thursday

    Time Temperature Precipitation Wind Pressure Humidity
    00:00 +14°C° 0 mm 2 mps 748 mmHg 85%
    01:00 +14°C° 0 mm 2 mps 748 mmHg 85%
    02:00 +13°C° 0 mm 2 mps 749 mmHg 88%
    03:00 +13°C° 0 mm 2 mps 749 mmHg 91%
    04:00 +12°C° 0 mm 2 mps 749 mmHg 94%
    05:00 +12°C° 0 mm 2 mps 749 mmHg 93%
    06:00 +13°C° 0 mm 2 mps 749 mmHg 92%
    07:00 +13°C° 0 mm 2 mps 749 mmHg 91%
    08:00 +14°C° 0 mm 2 mps 750 mmHg 85%
    09:00 +16°C° 0 mm 2 mps 750 mmHg 79%
    10:00 +17°C° 0 mm 2 mps 750 mmHg 73%
    11:00 +19°C° 0 mm 1 mps 751 mmHg 72%
    12:00 +19°C° 0 mm 1 mps 751 mmHg 71%
    13:00 +19°C° 0 mm 1 mps 751 mmHg 69%
    14:00 +19°C° 0 mm 1 mps 751 mmHg 70%
    15:00 +19°C° 0 mm 1 mps 751 mmHg 71%
    16:00 +19°C° 0 mm 1 mps 751 mmHg 72%
    17:00 +18°C° 0 mm 1 mps 751 mmHg 75%
    18:00 +16°C° 0 mm 1 mps 751 mmHg 78%
    19:00 +16°C° 0 mm 1 mps 752 mmHg 81%
    20:00 +16°C° 0 mm 1 mps 752 mmHg 82%
    21:00 +16°C° 0 mm 1 mps 752 mmHg 82%
    22:00 +15°C° 0 mm 1 mps 753 mmHg 82%
    23:00 +15°C° 0 mm 1 mps 753 mmHg 84%

    27 September, Friday

    Time Temperature Precipitation Wind Pressure Humidity
    00:00 +14°C° 0 mm 1 mps 753 mmHg 86%
    01:00 +14°C° 0 mm 1 mps 753 mmHg 89%
    02:00 +13°C° 0 mm 1 mps 753 mmHg 90%
    03:00 +13°C° 0 mm 1 mps 753 mmHg 91%
    04:00 +12°C° 0 mm 1 mps 754 mmHg 92%
    05:00 +13°C° 0 mm 1 mps 754 mmHg 91%
    06:00 +13°C° 0 mm 1 mps 754 mmHg 89%
    07:00 +14°C° 0 mm 1 mps 754 mmHg 88%
    08:00 +15°C° 0 mm 1 mps 754 mmHg 81%
    09:00 +18°C° 0 mm 1 mps 754 mmHg 74%
    10:00 +19°C° 0 mm 2 mps 754 mmHg 67%
    11:00 +19°C° 0 mm 2 mps 754 mmHg 64%
    12:00 +20°C° 0 mm 2 mps 754 mmHg 61%
    13:00 +21°C° 0 mm 3 mps 753 mmHg 57%
    14:00 +21°C° 0 mm 2 mps 753 mmHg 57%
    15:00 +21°C° 0 mm 2 mps 753 mmHg 58%
    16:00 +20°C° 0 mm 2 mps 753 mmHg 58%
    17:00 +19°C° 0 mm 2 mps 753 mmHg 62%
    18:00 +18°C° 0 mm 2 mps 753 mmHg 66%
    19:00 +17°C° 0 mm 2 mps 753 mmHg 70%
    20:00 +17°C° 0.1 mm 2 mps 753 mmHg 72%
    21:00 +16°C° 0.1 mm 2 mps 753 mmHg 75%
    22:00 +16°C° 0.1 mm 2 mps 753 mmHg 78%
    23:00 +16°C° 0.5 mm 2 mps 753 mmHg 82%

    28 September, Saturday

    Time Temperature Precipitation Wind Pressure Humidity
    00:00 +16°C° 0.5 mm 2 mps 753 mmHg 86%
    01:00 +15°C° 0.5 mm 2 mps 752 mmHg 90%
    02:00 +15°C° 0.2 mm 2 mps 752 mmHg 91%
    03:00 +14°C° 0.2 mm 3 mps 752 mmHg 91%
    04:00 +14°C° 0.2 mm 3 mps 752 mmHg 92%
    05:00 +14°C° 0 mm 3 mps 752 mmHg 91%
    06:00 +16°C° 0 mm 3 mps 752 mmHg 90%
    07:00 +15°C° 0 mm 4 mps 752 mmHg 89%
    08:00 +17°C° 0 mm 4 mps 752 mmHg 84%
    09:00 +18°C° 0 mm 4 mps 752 mmHg 78%
    10:00 +19°C° 0 mm 5 mps 752 mmHg 72%
    11:00 +20°C° 0 mm 5 mps 752 mmHg 68%
    12:00 +20°C° 0 mm 5 mps 752 mmHg 63%
    13:00 +21°C° 0 mm 5 mps 751 mmHg 58%
    14:00 +20°C° 0.6 mm 4 mps 751 mmHg 63%
    15:00 +19°C° 0.6 mm 4 mps 751 mmHg 68%
    16:00 +18°C° 0.6 mm 4 mps 751 mmHg 72%
    17:00 +17°C° 0.1 mm 3 mps 751 mmHg 76%
    18:00 +16°C° 0.1 mm 3 mps 751 mmHg 80%
    19:00 +14°C° 0.1 mm 3 mps 752 mmHg 84%
    20:00 +13°C° 0 mm 3 mps 752 mmHg 84%
    21:00 +13°C° 0 mm 3 mps 752 mmHg 84%
    22:00 +13°C° 0 mm 3 mps 752 mmHg 84%
    23:00 +12°C° 0 mm 3 mps 752 mmHg 85%
    Show more